Regional Weather Roundup
Issued by NWS Jackson, KY

Home | Current Version | Previous Version | Text Only | Print | Product List | Glossary On
Versions: 1 2 3 4 5 6 7 8 9 10 11 12 13 14 15 16 17 18 19 20 21 22 23 24 25 26 27 28 29 30 31 32 33 34 35 36 37 38 39 40 41 42 43 44 45 46 47 48 49 50
000
ASUS43 KJKL 040410
RWRJKL

EAST KENTUCKY HOURLY WEATHER ROUNDUP
NATIONAL WEATHER SERVICE JACKSON KY
1200 AM EDT WED MAY 04 2016

NOTE: "FAIR" INDICATES FEW OR NO CLOUDS BELOW 12,000 FEET WITH
NO SIGNIFICANT WEATHER AND/OR OBSTRUCTIONS TO VISIBILITY.

* THESE REPORTS ARE NOT UNDER NWS QUALITY CONTROL AND MAY NOT
  REPORT WEATHER SUCH AS PRECIPITATION AND FOG.

KYZ079-080-083-085-087-088-110-112-115-119-120-040500
...EASTERN KENTUCKY...

CITY           SKY/WX    TMP DP  RH WIND       PRES   REMARKS
JACKSON        CLOUDY    53  46  77 NW5       29.86F
LONDON         CLOUDY    56  46  69 W5        29.87F
SOMERSET*      CLOUDY    54  45  71 W6        29.90F
MONTICELLO*    CLOUDY    55  48  77 NW7       29.91F
WILLIAMSBURG*  CLOUDY    54  52  94 CALM      29.89F
MIDDLESBORO*   CLOUDY    52  49  89 CALM      29.89F
HARLAN APT*    CLOUDY    50  46  87 CALM      29.88F
BLACK MTN*       N/A     43  43 100 N2          N/A
PIKE CO APT*   CLOUDY    53  47  80 CALM      29.86F
BIG SANDY APT* CLOUDY    54  49  85 CALM      29.87S
MOREHEAD APT*  CLOUDY    54  50  87 CALM      29.88F
$$

KYZ035-036-041-042-044-050-067-078-099-040500
...CENTRAL KENTUCKY...

CITY           SKY/WX    TMP DP  RH WIND       PRES   REMARKS
MT STERLING*   CLOUDY    52  50  93 CALM      29.88F
FLEMING/MASON* CLOUDY    51  51  97 W3        29.87F
DANVILLE*      CLOUDY    54  46  76 CALM      29.90F
RICHMOND*      CLOUDY    54  48  82 NW3       29.88F
LEXINGTON      CLOUDY    53  48  83 W3        29.88F
FRANKFORT      CLOUDY    54  47  77 CALM      29.87F
LOUISVILLE     PTCLDY    55  45  68 SW5       29.88F
LEBANON*         N/A     54  46  76 CALM      29.89F
BOWLING GREEN  MOCLDY    52  46  80 CALM      29.91F
$$

KYZ091>093-OHZ055-061-077-WVZ005-015-034-035-042-040500
...SOUTHERN OHIO/WEST VIRGINIA...

CITY           SKY/WX    TMP DP  RH WIND       PRES   REMARKS
COVINGTON      PTCLDY    50  49  96 SW3       29.85F
COLUMBUS       MOCLDY    53  46  77 SW3       29.82F
DAYTON         PTCLDY    48  45  89 SW6       29.83F
WILMINGTON     CLOUDY    52  48  86 W3        29.83F
HUNTINGTON     CLOUDY    54  51  90 SW3       29.84F
CHARLESTON     MOCLDY    56  53  90 CALM      29.83F
PINEVILLE*     CLOUDY    52  49  90 MISG      29.90F FOG
BECKLEY        MOCLDY    50  48  93 CALM      29.85F
$$

VAZ002-007-008-TNZ017-027-036-066-071-040500
...SOUTHWEST VIRGINIA/EAST TENNESSEE...

CITY           SKY/WX    TMP DP  RH WIND       PRES   REMARKS
WISE*            N/A     50  39  66 CALM      29.89S
BRISTOL        CLOUDY    58  46  64 N3        29.86S
MORRISTOWN*    CLOUDY    57  48  72 NW6       29.87S
SEVIERVILLE*   CLOUDY    57  46  67 NW7       29.87F
KNOXVILLE      MOCLDY    60  49  66 W5        29.87F
OAK RIDGE      CLOUDY    58  47  66 CALM      29.89F
CROSSVILLE     CLOUDY    56  46  69 W3        29.92F
NASHVILLE      CLOUDY    57  47  69 W3        29.93F
$$

...KEY TO REMARKS...
VSB - VISIBILITY IN MILES
WCI - WIND CHILL INDEX
HX  - HEAT INDEX

$$



USA.gov is the U.S. government's official web portal to all federal, state and local government web resources and services.